OV2-1

Satellite information

Favourite Embed

Satellite Type and Status

PAYLOADIN ORBIT

Key statistics

Satellite OV2-1 at a glance.

Uptime

21869

Days in orbit

Revolutions

≈ 14.5

Per day

Orbit

LEO

Low Earth Orbit

Inclination

32.3

Latest

Satellite identification and parameters

Extended collection of information and parameters for OV2-1.

Object identification

Identified? True

Debris? False

Object name: OV2-1

International designator: 1965-082C

Object number (NORAD): 1641

Object ID (CCSDS): 1641

Country: UNITED STATES OF AMERICA (US)

Current information (Y/N): Y

RCS size: MEDIUM

Orbital parameters

Period: 98.996 minutes

Inclination: 32.2958 deg

SMA: 7088.791 km

Apoapsis: 723.725 km

Periapsis: 697.587 km

RAAN: 121.4814 deg

Eccentricy: 0.00184362

Argument of periapsis: 141.8516 deg

Mean anomaly: 218.3438 deg

Mean motion: 14.54603143 rev/day

Mean motion (dot): 0.00000444 rev/day2

B* drag term: 0.000094838441 1/REarth

Two-line elements (TLE)

Creation date: Aug. 30, 2025, 3:38 a.m.

Reference frame: TEME

Reference center: EARTH

Epoch: Aug. 29, 2025, 10:28 p.m. UTC

TLE line 0: 0 OV2-1

TLE line 1: 1 01641U 65082C 25241.93679724 .00000444 00000-0 94838-4 0 9992

TLE line 2: 2 01641 32.2958 121.4814 0018436 141.8516 218.3438 14.54603143174857

Live tracking on map

Real-time ground track for satellite OV2-1.

In-orbit conjunctions

A list of the most updated potential collisions computed for object OV2-1.

Target Orbit TCA Probability of collision Miss distance Type
SARA SSO 2025-07-08 13:39:47 0.06373918 27.0 (m) PAYLOAD
COSMOS 2251 DEB LEO 2025-02-06 15:22:52 0.0004007187 316.0 (m) DEBRIS
COSMOS 2251 DEB LEO 2024-12-28 17:53:18 0.0001735068 844.0 (m) DEBRIS
CBERS 1 DEB SSO 2024-11-10 22:41:06 0.0002439378 437.0 (m) DEBRIS
SL-19 DEB SSO 2024-10-31 19:18:17 0.000118031 971.0 (m) DEBRIS

Associated space launch

The OV2 (Orbiting Vehicle 2) series satellites were originally built for project ARENTS (Advanced Research Environmental Test Satellite), which was intended to obtain supporting data for the Vela program. After the cancellation of the ARENTS program, the already built hardware was reused for OV2, a low-cost series of experimental satellites, which were to be launched for free on Titan-3C test flights to very different orbits.

OV2-1 was lifted into orbit during the mission ‘Titan IIIC | OV2-1’, on board a Titan IIIC space rocket.

The launch took place on Oct. 15, 1965, 5:23 p.m. from Space Launch Complex 40.

For more information about the launch, click the button.

Launch to space Titan IIIC | OV2-1
Titan IIIC | OV2-1

Agency: N/A

Status: Launch Successful

Launch date: Oct. 15, 1965, 5:23 p.m. UTC

Rocket: Titan IIIC

Launch pad: Space Launch Complex 40

Location: Cape Canaveral SFS, FL, USA

...

Latest news about this satellite

There are no fresh news available about this satellite. Check back as we update our databases every day.


Newsletter sign-up

Weekly statistics, charts and insights to help you stay on top of the space industry.